sat.trackr.live / text

‹ back to catalog

STARLINK-1676

NORAD 46556 · 2020-070AA

PAYLOAD ACTIVE UNKNOWN

§ Identity

Operator
Country
US
Launch date
2020-10-06
Launch site
AFETR
Launch vehicle
Mass (kg)
RCS (m²)

Purposes: comms

External: N2YO · Heavens-Above · Gunter

§ Orbital elements

Epoch: 2026-09-01T14:52:40.294848Z

Period
87.88 min
Inclination
53.0133°
Eccentricity
0.0009788
Mean motion
16.38550848 rev/d
Perigee alt
163.3 km
Apogee alt
176.1 km
Semi-major
6,547.8 km
B*
7.2876e-4
RAAN
350.1597°
Arg perigee
309.6354°
Mean anomaly
50.3827°
Rev number
32,765

§ Raw data

STARLINK-16761 46556U 20070AA  26244.61991082  .08582462  12425-4  72876-3 0  99952 46556  53.0133 350.1597 0009788 309.6354  50.3827 16.38550848327651

JSON: /api/v1/satellites/46556 · /tle

For live sub-satellite position, see the globe view (requires WebGL).

§ Visibility from observer

Set your observer location to see the next 7 days of passes ≥ 10°. The values pass through the URL so the page stays shareable.

No JS? Fill the form by hand. The geolocation button needs JavaScript.